MICROSAT-TD (43128 NORAD) Tracking and Keplerian Element Data

This shows tracking and keplerian element data for the satellite.

Feedback or suggestion? Click here.




ElementValue
Catalog43128
NameMICROSAT-TD
Epoch Orbit7839
Epoch Day146.68869345
Epoch Year2019
RAAN203.6138
Inclination96.808
Eccentricity0.0007346
Argument of Perigee212.3884
Mean Anonmoly147.693
Mean Motion15.70989981
Decay Rate0.00011317
L11 43128U 18004T 19146.68869345 .00011317 00000-0 91317-4 0 9999
L22 43128 96.8080 203.6138 0007346 212.3884 147.6930 15.70989981 78396

Live tracking and technical data element details for MICROSAT-TD (NORAD 43128). MICROSAT-TD can be tracked NOW for your location showing map with azimuth and elevation plus other details from your city location.

Track the satellite on the map from your city or location and see movement details for azimuth, elevation, latitude, longitude, range, height, and movement on the map or in text.







IsCatalogInMostPopularTable: catalog: 43128, numindb: 215
Update: records affected: 2



GetName: 43128 MICROSAT-TD

Hit Count: updated at: Mon, 27 May 2019 04:10:19 GMT